Terminal Aerodrome Forecast
Issued by NWS Denver/Boulder, CO

Home | Current Version | Previous Version | Text Only | Print | Product List | Glossary On
Versions: 1 2 3 4 5 6 7 8 9 10 11 12 13 14 15 16 17 18 19 20 21 22 23 24 25 26 27 28 29 30 31 32 33 34 35 36 37 38 39 40 41 42 43 44 45 46 47 48 49 50
000
FTUS45 KBOU 202340
TAFDEN
TAF
KDEN 202340Z 2100/2206 35007KT P6SM VCSH OVC035
     FM210130 24008KT P6SM BKN035 BKN050
     FM210300 21009KT P6SM SCT040 BKN070
     FM210800 19010KT P6SM SCT070 BKN140
     FM211400 24008KT P6SM FEW140 SCT220
     FM211900 04006KT P6SM SCT120 SCT250
     FM220200 23011KT P6SM SCT100 BKN150=

USA.gov is the U.S. government's official web portal to all federal, state and local government web resources and services.